Location: Colera
(42.4037°N, 3.1506°E)
Time: 17:24:48
(UTC+00:00)

Daily predictions for brighter satellites

Satellite Brightness Start Highest point End
(mag) Time Altitude Azimuth Time Altitude Azimuth Time Altitude Azimuth
Timation 2 Rocket 4.2 17:04:16 10° NNW 17:10:50 59° ENE 17:17:33 10° SE
Cosmos 1908 4.4 17:07:43 10° SSW 17:11:25 46° WNW 17:15:10 10° N
NOAA 12 4.1 17:06:38 10° SSE 17:11:54 75° ENE 17:17:13 10° N
Cosmos 1726 Rocket 3.7 17:07:43 10° S 17:11:56 51° E 17:16:11 10° NNE
Meteor 2-14 Rocket 4.4 17:06:06 10° N 17:12:16 73° E 17:18:21 10° SSE
Cosmos 2227 Rocket 2.9 17:09:37 10° N 17:14:39 31° NE 17:19:38 10° ESE
Helios 1A Rocket 4.3 17:11:52 10° ESE 17:14:46 19° ENE 17:17:39 10° NNE
Cosmos 2228 2.9 17:10:47 10° S 17:15:01 77° E 17:19:19 10° N
ATLAS 2AS CENTAUR R/B 4.5 17:11:31 10° NNW 17:16:22 17° NNE 17:21:01 10° ENE
Cosmos 1892 4.2 17:13:47 10° NNE 17:16:29 18° ENE 17:19:10 10° ESE
Aureole 3 Rocket 3.8 17:13:07 10° SSE 17:16:41 34° E 17:21:24 10° NNE
Cosmos 1400 Rocket 3.5 17:13:07 10° SSE 17:16:52 35° E 17:20:37 10° NNE
Cosmos 1758 Rocket 3.8 17:13:41 10° NNW 17:18:04 76° W 17:22:24 10° S
Cosmos 292 Rocket 3.8 17:14:22 10° SSW 17:19:09 83° ESE 17:23:59 10° NNE
Meteor 2-21 4.5 17:13:45 10° N 17:19:57 88° E 17:26:02 10° S
Cosmos 968 Rocket 4.3 17:19:48 10° N 17:24:22 29° ENE 17:28:51 10° ESE
Cosmos 1300 2.6 17:21:25 10° S 17:25:12 75° E 17:29:02 10° NNE
Atlas Centaur 2 4.3 17:18:56 10° SW 17:25:47 30° SSE 17:32:53 10° ESE
FALCON 9 DEB 3.9 17:23:00 10° WSW 17:26:07 43° NNW 17:29:14 10° NE
Milstar 3 4.3 17:21:04 10° SW 17:27:03 25° S 17:32:24 10° ESE
Lacrosse 5 4.0 17:24:40 10° NW 17:27:42 16° N 17:30:43 10° NNE
Cosmos 1606 Rocket 3.7 17:23:35 10° S 17:27:57 82° W 17:32:22 10° N
Cosmos 1697 Rocket 3.6 17:23:47 10° SSE 17:28:19 26° ESE 17:32:53 10° NE
CZ-4 R/B 2.6 17:25:41 10° ESE 17:28:31 20° ENE 17:31:20 10° NNE
FALCON 9 DEB 4.0 17:26:12 10° W 17:29:13 39° NNW 17:32:16 10° NE
SMAP 3.5 17:24:52 10° S 17:29:29 67° WSW 17:34:08 10° NNW
Cosmos 2058 4.1 17:30:26 10° NNE 17:33:34 21° ENE 17:36:41 10° ESE
Cosmos 1825 4.1 17:33:13 10° NE 17:34:21 12° ENE 17:34:21 12° ENE
SAR-Lupe-4 3.6 17:32:17 10° NNE 17:35:50 59° ESE 17:39:21 10° S
CZ-2D R/B 4.0 17:33:05 10° SE 17:36:28 31° ENE 17:39:51 10° N
Cosmos 1302 Rocket 4.0 17:33:18 10° SSW 17:38:34 81° ESE 17:43:52 10° NNE
SKYMED 2 3.7 17:35:12 10° NNE 17:39:27 50° E 17:43:40 10° S
NOAA 11 4.1 17:34:14 10° SSE 17:39:41 82° ENE 17:45:08 10° NNW
ERS-2 2.7 17:36:10 10° N 17:39:46 61° WNW 17:43:21 10° SSW
SL-4 R/B 3.5 17:37:53 10° NW 17:40:33 20° N 17:42:47 13° NE
Okean-O 3.3 17:37:07 10° SE 17:41:03 32° ENE 17:45:01 10° N
ADEOS Rocket 4.4 17:35:48 10° N 17:41:57 46° WNW 17:48:40 10° SW
USA 281 3.7 17:35:39 10° SSE 17:42:09 68° WSW 17:48:43 10° NNW
FALCON 9 DEB 4.3 17:39:39 10° W 17:42:38 33° NNW 17:45:25 11° NE
Cosmos 1346 Rocket 3.7 17:39:55 10° NNE 17:43:20 26° ENE 17:46:43 10° SE
Cosmos 1340 2.6 17:43:12 10° N 17:46:57 60° ENE 17:50:40 10° SSE
Meteor 2-16 Rocket 4.5 17:42:28 10° N 17:48:36 86° W 17:54:41 10° S
Cosmos 1315 Rocket 3.7 17:46:02 10° SSE 17:49:24 27° E 17:52:47 10° NNE
Cosmos 1486 Rocket 4.2 17:44:24 10° N 17:49:37 50° ENE 17:54:44 10° SE
Cosmos 1980 Rocket 3.3 17:47:26 10° SSE 17:51:32 21° E 17:53:25 18° ENE
Cosmos 1745 Rocket 4.3 17:45:39 10° N 17:51:37 43° ENE 17:57:37 10° SSE
YAOGAN 3 4.5 17:48:00 10° SSE 17:52:21 82° ENE 17:56:44 10° N
SAR-Lupe-1 4.0 17:50:07 10° NNE 17:53:43 87° WNW 17:57:18 10° SSW
USA 305 3.9 17:49:54 10° NW 17:53:45 31° NNE 17:55:45 21° ENE
Cosmos 1689 Rocket 1.8 17:51:30 10° NNE 17:54:23 70° ESE 17:57:14 10° S
Cosmos 2297 Rocket 2.1 17:48:53 10° NNW 17:54:35 76° ENE 18:00:14 10° SSE
In-Cosmos 22 Rocket 4.0 17:51:25 10° N 17:56:48 72° E 18:02:17 10° SSE
CZ-4B R/B 3.0 17:54:10 10° N 17:57:07 34° WNW 17:59:59 10° SW
Aureole 3 3.0 17:55:53 10° SSW 17:59:02 66° W 18:02:00 10° N
USA 306 3.8 17:56:21 10° NW 18:00:15 33° NNE 18:01:57 24° ENE
Cosmos 1953 Rocket 4.5 17:56:14 10° NNW 18:00:33 52° W 18:04:52 10° S
OAO 2 Rocket 4.4 17:58:35 10° WSW 18:03:04 33° S 18:05:52 19° ESE
Cosmos 2058 Rocket 3.4 17:59:11 10° SSW 18:03:38 69° W 18:08:09 10° N
CZ-2C R/B 3.4 18:01:36 10° SE 18:07:12 52° ENE 18:12:39 10° N
Cosmos 2360 4.5 18:05:37 10° S 18:11:01 45° ESE 18:15:32 15° NE
Cosmos 1354 Rocket 4.5 18:06:50 10° N 18:11:46 39° ENE 18:14:15 25° ESE
Cosmos 1455 2.2 18:09:27 10° S 18:13:06 51° E 18:16:49 10° NNE
CZ-4C R/B 4.3 18:10:10 10° NNW 18:14:38 18° NNE 18:17:00 16° NE
Cosmos 1992 Rocket 3.9 18:11:11 10° S 18:16:20 70° ESE 18:21:32 10° NNE
Meteor 2-10 Rocket 3.4 18:13:23 10° S 18:18:42 77° E 18:23:51 10° NNE
Cosmos 1709 Rocket 4.3 18:15:15 10° N 18:21:16 42° ENE 18:27:16 10° SE
Cosmos 2278 4.1 18:17:32 10° S 18:22:48 41° ESE 18:24:51 30° ENE
Cosmos 1076 Rocket 3.5 18:18:42 10° N 18:22:52 52° E 18:25:01 26° SE
Cosmos 2219 3.9 18:20:50 10° NNW 18:26:30 58° WSW 18:32:06 10° S
COSMO-SKYMED 1 3.6 18:23:18 10° N 18:27:29 47° WNW 18:31:38 10° SW
Geosat 3.9 18:29:49 24° NE 18:32:51 65° ESE 18:37:49 10° SSW
H-2A R/B 2.1 18:28:25 10° SSE 18:33:44 62° ENE 18:39:08 10° N
Cosmos 883 Rocket 4.4 18:27:54 10° S 18:33:54 58° E 18:39:54 10° NNE
Cosmos 2082 3.6 18:28:49 10° NNW 18:34:34 72° ENE 18:38:04 24° SE
SJ-11-01 4.2 18:34:08 30° SE 18:36:21 64° ENE 18:40:59 10° N
ARGOS 3.3 18:36:01 41° ESE 18:37:19 49° ENE 18:42:33 10° N
YAOGAN 1 2.6 18:34:45 10° S 18:39:03 78° WSW 18:43:24 10° NNW
S3M 4.0 18:33:32 10° S 18:39:38 80° W 18:45:50 10° N
Cosmos 2315 Rocket 4.0 18:35:20 10° SSE 18:41:20 54° E 18:47:20 10° NNE
CRYOSAT 2 4.2 18:37:10 10° N 18:42:03 86° E 18:46:55 10° S
GEOS 3 Rocket 3.8 18:41:32 47° ENE 18:42:22 51° NE 18:47:36 10° NNW
SeaSat 1 3.1 18:43:27 36° NE 18:43:27 36° NE 18:47:20 10° NNW
USA 307 3.0 18:39:33 10° NW 18:43:36 57° NNE 18:43:36 57° NNE
Cosmos 1408 3.2 18:42:09 10° NNW 18:45:44 57° W 18:49:03 12° S
Cosmos 1812 Rocket 3.5 18:41:44 10° S 18:46:09 85° W 18:50:33 10° N
Cosmos 2369 3.7 18:41:03 10° SSW 18:46:46 84° WNW 18:51:18 17° NNE
NOSS 3-4 (A) 4.3 18:40:51 10° NNW 18:47:23 41° NE 18:48:36 39° ENE
NOSS 3-4 (C) 4.3 18:40:57 10° NNW 18:47:29 41° NE 18:48:40 39° ENE
USA 308 3.1 18:44:28 10° NW 18:48:20 59° N 18:48:20 59° N
Helios 1A Rocket 4.4 18:45:48 10° SSW 18:49:38 38° W 18:53:29 10° NNW
NOSS 3-3 (A) 4.2 18:49:01 10° SW 18:54:46 65° NW 18:59:03 22° NNE
NOSS 3-3 (C) 4.2 18:49:07 10° SW 18:54:53 66° NW 18:59:07 22° NNE
USA 215 4.1 18:54:35 30° NE 18:55:54 32° NNE 19:01:32 10° NW
CSL-04 Rocket 3.7 18:51:27 10° SSE 18:57:01 85° WSW 19:02:34 10° NNW
Cosmos 2227 Rocket 3.4 18:53:31 10° NW 18:58:46 40° WSW 19:04:00 10° S
MOS 1 Rocket 3.5 18:54:36 10° N 18:59:20 73° WNW 19:04:20 10° SSW
Cosmos 2263 Rocket 3.3 18:57:44 10° N 19:01:10 29° NNE 19:01:10 29° NNE
CZ-4 R/B 3.1 18:59:53 10° SSW 19:03:21 30° W 19:06:48 10° NW
ATLAS 2AS CENTAUR R/B 3.2 19:02:24 10° NNW 19:09:28 44° NE 19:09:28 44° NE
BREEZE-M R/B 4.2 19:04:55 10° WNW 19:09:38 63° NNE 19:10:34 57° ENE
Cosmos 1825 3.8 19:06:57 10° NNW 19:09:13 31° NW 19:09:13 31° NW
Cosmos 1697 Rocket 3.6 19:06:37 10° SW 19:11:59 46° WNW 19:16:32 14° N
Lacrosse 5 3.8 19:08:41 10° NNW 19:11:26 19° N 19:11:26 19° N
Atlas Centaur 2 3.9 19:07:15 10° WSW 19:14:44 36° S 19:16:24 33° SSE
Cosmos 44 Rocket 3.7 19:12:36 10° SW 19:17:10 58° WNW 19:17:10 58° WNW
SL-4 R/B 4.2 19:17:14 10° NW 19:18:22 18° NW 19:18:22 18° NW
Timation 1 Rocket 4.4 19:18:27 10° NNW 19:24:28 73° WSW 19:24:55 70° SSW
Cosmos 1980 Rocket 2.7 19:29:33 10° SW 19:35:05 56° WNW 19:35:17 55° NW
BREEZE-M TANK 4.5 19:37:09 10° WNW 19:39:30 27° W 19:39:30 27° W
CZ-4C R/B 3.9 19:57:53 10° NNW 20:02:10 36° N 20:02:10 36° N
